User: anonymous   Login
Location: Newark
(23.1300°N, 73.6109°E)
Time: 02:47:17
(UTC+00:00)
Language:

NOAA 18 - Orbit

View from above orbital plane
View from above orbital plane
View from above satellite
View from above satellite

Ground track
Ground track

The orbit data is extracted from the following two-line orbital elements,

1 28654U 05018A   21127.78948100  .00000062  00000-0  58076-4 0  9997
2 28654  98.9964 192.4870 0014795  40.9853 319.2427 14.12603732822793
Epoch (UTC): 07 May 2021 18:56:51
Eccentricity: 0.0014795
inclination: 98.9964°
perigee height: 840 km
apogee height: 861 km
right ascension of ascending node: 192.4870°
argument of perigee: 40.9853°
revolutions per day: 14.12603732
mean anomaly at epoch: 319.2427°
orbit number at epoch: 82279

The dashed part of the orbit path shows where the satellite is in the earth's shadow,  

DLR